EWG19EW EDDL-LKPR

Flight info

Callsign EWG19EW
Flight time N/A
Altitude 31000
Route DODEN7Z/05R DODEN Y853 BOMBI DCT ESATI DCT KOMIB DCT SULUS Z650 TONSU Z35 ODOMO DCT LOMKI
Aircraft A320/M-SDE3FGHIRWY/LB1

Departure

Time 2026-04-30 20:00
Airport Düsseldorf Airport (EDDL)

Arrival

Time N/A
Airport Václav Havel Airport Prague (LKPR)
Time Latitude Longitude Altitude Speed Heading
2026-04-30 19:11 51.28207 6.76741 118 ft 0 kts 277°
2026-04-30 19:49 51.28193 6.76815 114 ft 4 kts 310°
2026-04-30 19:49 51.28174 6.76835 117 ft 3 kts
2026-04-30 19:50 51.28167 6.76834 114 ft 0 kts
2026-04-30 19:53 51.28187 6.76838 117 ft 6 kts
2026-04-30 19:54 51.28241 6.76848 118 ft 10 kts
2026-04-30 19:54 51.28265 6.76851 118 ft 1 kts
2026-04-30 19:54 51.28298 6.76820 116 ft 10 kts 320°
2026-04-30 19:54 51.28354 6.76747 116 ft 9 kts 321°
2026-04-30 19:55 51.28387 6.76706 117 ft 5 kts 322°
2026-04-30 19:55 51.28412 6.76674 117 ft 5 kts 317°
2026-04-30 19:55 51.28403 6.76595 115 ft 9 kts 235°
2026-04-30 19:55 51.28366 6.76517 117 ft 9 kts 232°
2026-04-30 19:56 51.28331 6.76444 116 ft 8 kts 232°
2026-04-30 19:56 51.28297 6.76375 116 ft 8 kts 233°
2026-04-30 19:56 51.28267 6.76311 116 ft 8 kts 232°
2026-04-30 19:56 51.28232 6.76237 117 ft 9 kts 233°
2026-04-30 19:57 51.28178 6.76122 116 ft 14 kts 233°
2026-04-30 19:57 51.28119 6.75999 116 ft 13 kts 232°
2026-04-30 19:57 51.28055 6.75866 117 ft 16 kts 233°
2026-04-30 19:57 51.27991 6.75732 117 ft 15 kts 232°
2026-04-30 19:58 51.27943 6.75616 117 ft 11 kts 256°
2026-04-30 19:58 51.27980 6.75537 115 ft 8 kts 336°
2026-04-30 19:58 51.28031 6.75496 114 ft 8 kts 333°
2026-04-30 19:58 51.28077 6.75459 114 ft 4 kts 338°
2026-04-30 19:59 51.28092 6.75467 117 ft 1 kts 31°
2026-04-30 19:59 51.28096 6.75472 117 ft 0 kts 40°
2026-04-30 19:59 51.28428 6.76177 114 ft 107 kts 53°
2026-04-30 20:00 51.28987 6.77352 196 ft 155 kts 54°
2026-04-30 20:00 51.29619 6.78704 1012 ft 150 kts 57°
2026-04-30 20:00 51.30251 6.80073 1698 ft 160 kts 61°
2026-04-30 20:00 51.30944 6.81603 2198 ft 179 kts 62°
2026-04-30 20:01 51.32591 6.85206 3039 ft 224 kts 59°
2026-04-30 20:01 51.33576 6.87305 3534 ft 249 kts 59°
2026-04-30 20:01 51.34633 6.89604 4393 ft 259 kts 62°
2026-04-30 20:02 51.35251 6.93042 5678 ft 254 kts 96°
2026-04-30 20:02 51.34992 6.95834 6727 ft 254 kts 101°
2026-04-30 20:03 51.34417 7.01468 8682 ft 260 kts 100°
2026-04-30 20:03 51.34124 7.04354 9611 ft 265 kts 100°
2026-04-30 20:03 51.33824 7.07300 10514 ft 271 kts 100°
2026-04-30 20:03 51.33618 7.09320 10824 ft 286 kts 100°